Weather in Bedryazh

Russia / Perm Krai     56°34′25″N   55°53′01″E
temp.,
°C
wind,
m/s
gust,
m/s
humid.,
%
clouds,
%
prec.,
mm/h
press.,
hPa
HPBL,
m
3 march, wed
wed323:00−6s71395100 1.8 998509
02:00−4sw4997100 1.4 997348
05:00−3wsw5996100 1.8 997402
08:00−5sw499699 0.4 997274
11:00−4wsw479597 0.8 998334
14:00−2wsw469497 0.1 998460
17:00−2sw469398 0.3 998525
20:00−5sw3797100 0.2 998178
4 march, thu
thu423:00−4wsw3797100 1.4 999319
02:00−7nw51095100 0.9 998362
05:00−13w479797 1.1 1000101
08:00−14wsw479996 0.1 1000150
11:00−10sw589698 0.1 1000333
14:00−7ssw61094100 0.3 999625
17:00−6ssw71194100 0.8 997692
20:00−6ssw71295100 0.7 994662
5 march, fri
fri523:00−6s81495100 3.1 992826
02:00−4sw91594100 0.9 991789
05:00−7w6129296 1.2 994365
08:00−6wsw7119298 0.4 997622
11:00−5wsw588799 0.5 999749
14:00−5wsw4691100 0.1 1000584
17:00−5wsw3590100 0.1 1001559
20:00−9nw4892100 0.0 1002160
6 march, sat
sat623:00−15nw499165 0.0 1005162
02:00−19wnw34960 0.0 100875
05:00−20wsw34990 0.0 101138
08:00−20sw3610061 0.0 101288
11:00−13sw589481 0.1 1012340
14:00−10sw5893100 0.2 1011477
17:00−9sw5792100 0.4 1010492
20:00−14s349799 0.1 100978
7 march, sun
sun723:00−15s2396100 0.1 100824
02:00−17s1296100 0.0 100620
05:00−17s1194100 0.0 100520
08:00−16sw1197100 0.2 100520
11:00−13wnw359396 0.3 1006350
14:00−13w5689100 0.1 1008547
17:00−14wsw5688100 0.1 1009749
20:00−19sw469999 0.1 1010104